Location: Chevoux
(46.3801°N, 4.9476°E)
Time: 22:57:47
(UTC+00:00)

Cosmos 2082 Rocket - Pass Details

Date: 28 January 2021
Orbit: 832 x 854 km, 71.0° (Epoch: 04 March)

Event Time Altitude Azimuth Distance (km) Brightness Sun altitude
Rises 17:36:39 0° 337° (NNW) 3,436 5.5 -10.1°
Reaches altitude 10° 17:39:20 10° 347° (NNW) 2,495 4.6 -10.6°
Maximum altitude 17:44:35 36° 53° (NE) 1,331 2.8 -11.5°
Drops below altitude 10° 17:49:47 10° 119° (ESE) 2,473 4.2 -12.3°
Enters shadow 17:51:19 - 125° (SE) 3,003 4.7 -12.6°
